Regional Weather Roundup
Issued by NWS Wilmington, NC

Home | Current Version | Previous Version | Text Only | Print | Product List | Glossary On
Versions: 1 2 3 4 5 6 7 8 9 10 11 12 13 14 15 16 17 18 19 20 21 22 23 24 25 26 27 28 29 30 31 32 33 34 35 36 37 38 39 40 41 42 43 44 45 46 47 48 49 50
000
ASUS42 KILM 042313
RWRILM
RWRILM
REGIONAL HOURLY WEATHER ROUNDUP
NATIONAL WEATHER SERVICE WILMINGTON NC
600 PM EST SUN DEC 04 2016

NOTE: "FAIR" INDICATES FEW OR NO CLOUDS BELOW 12,000 FEET WITH NO
SIGNIFICANT WEATHER AND/OR OBSTRUCTIONS TO VISIBILITY.

...............WFO WILMINGTON COUNTY WARNING AREA...............

......COASTAL NC AND SC COUNTIES......

CITY           SKY/WX    TMP DP  RH WIND       PRES   REMARKS
WILMINGTON     CLOUDY    45  43  93 E8        30.16F
N MYRTLE BEACH CLOUDY    48  41  76 NE8       30.13F
MYRTLE BEACH   CLOUDY    52  37  58 NE8       30.15F

......INLAND NC AND SC COUNTIES.......

CITY           SKY/WX    TMP DP  RH WIND       PRES   REMARKS
LUMBERTON      CLOUDY    44  43  96 NE7       30.15F
ELIZABETHTOWN  RAIN      44  44  99 CALM      30.19R
WHITEVILLE     CLOUDY    46  41  84 NE10      30.14F
FLORENCE       LGT RAIN  46  43  89 NE7       30.14F
DARLINGTON     LGT RAIN  44  42  93 NE6       30.15F
KINGSTREE      DRIZZLE   45  41  87 CALM      30.13F
HARTSVILLE     CLOUDY    43  41  93 NE7       30.14S
BENNETTSVILLE  CLOUDY    46  45  93 NE5       30.15F
CONWAY         CLOUDY    46  39  76 NE6       30.14F
GEORGETOWN     NOT AVBL
MARION         CLOUDY    43  41  93 NE6       30.14S

....................REST OF NORTH CAROLINA......................

.........EASTERN NC.........

CITY           SKY/WX    TMP DP  RH WIND       PRES   REMARKS
CAPE HATTERAS  MOCLDY    49  40  71 NE3       30.20F
JACKSONVILLE   LGT RAIN  46  44  93 NE3       30.20F
MOREHEAD CITY  LGT RAIN  48  42  80 E7        30.19F
KENANSVILLE    RAIN      45  45 100 NE5       30.19S FOG
NEW BERN       LGT RAIN  48  41  76 NE6       30.20F
ELIZABETH CITY CLOUDY    47  36  65 E3        30.21S

.........CENTRAL NC.........

CITY           SKY/WX    TMP DP  RH WIND       PRES   REMARKS
RALEIGH DURHAM LGT RAIN  43  40  89 SE3       30.19F FOG
ROCKY MOUNT    LGT RAIN  45  41  86 CALM      30.20F
ROANOKE RAPIDS NOT AVBL
FAYETTEVILLE   LGT RAIN  43  42  97 E7        30.16F
HOFFMAN        LGT RAIN  42  41  95 NE5       30.16R

.........WESTERN NC.........

CITY           SKY/WX    TMP DP  RH WIND       PRES   REMARKS
CHARLOTTE      CLOUDY    42  39  89 N6        30.14F
GREENSBORO     LGT RAIN  41  40  96 S5        30.14F FOG
HICKORY        NOT AVBL
BOONE          NOT AVBL
ASHEVILLE      NOT AVBL

.....................REST OF SOUTH CAROLINA.....................

.........EASTERN SC.........

CITY           SKY/WX    TMP DP  RH WIND       PRES   REMARKS
CHARLESTON     CLOUDY    57  48  72 E10       30.08F
BEAUFORT MCAS  CLOUDY    60  54  80 NE5       30.06F
HILTON HEAD    CLOUDY    63  57  82 NE5       30.05F

.........CENTRAL SC.........

CITY           SKY/WX    TMP DP  RH WIND       PRES   REMARKS
COLUMBIA       LGT RAIN  47  43  86 E9        30.11F
ORANGEBURG     LGT RAIN  47  44  90 NE7       30.11S
SUMTER SHAW    LGT RAIN  45  42  90 NE9       30.10F

.........WESTERN SC.........

CITY           SKY/WX    TMP DP  RH WIND       PRES   REMARKS
GREENVILLE     NOT AVBL
ROCK HILL      LGT RAIN  42  40  92 CALM      30.14F FOG
ANDERSON       LGT RAIN  42  40  92 NE8       30.10F FOG
CLEMSON        NOT AVBL
GREENWOOD      LGT RAIN  42  40  92 NE7       30.12S FOG


...................COASTAL AND OFFSHORE REPORTS..................

................LOCAL PIERS AND NC RESERVE................


STATION/POSITION TIME  SKY/WX   TEMP    WIND        PRES    VSBY
                                AIR SEA DIR/SP/G
                 (UTC)          (F)     (DEG/KT/KT) (MB)    (MI)
JOHNY MRCER PIER 2236            49 62   30/ 13/ 15 1020.5F
NC RESRV MASNBRO 2145            47      50/  4     1021.0
OCEAN CREST PIER NOT AVBL
SPRINGMAID  PIER NOT AVBL


................COASTAL AND OFFSHORE BUOYS................


STATION/POSITION TIME  SKY/WX   TEMP    WIND        PRES    VSBY
                                AIR SEA DIR/SP/G
                 (UTC)          (F)     (DEG/KT/KT) (MB)    (MI)
DIMNDSHOAL 41025 2250            55 75   40/  8/ 12 1022.7F
WVE H/P(F/S)=  4/ 9 SWL H/P/D(F/S/D)=  3/ 40/ 9

CAPE LOOKOUT     2300            52      40/ 13/ 16 1021.8F
ONSLOW BAY 41036 NOT AVBL
ONSLOW BAY 41064 2208            56 74   50/ 14/ 21 1021.8F
ONSLOW BAY 41159 NOT AVBL
5SE WRITBC 41038 2208            50 63   50/ 14/ 23 1021.3F
MASNBO INL 41110 2259               63                N/A
WVE H/P(F/S)=  3/ 4

WILM HARBR 41108 2256               61                N/A
WVE H/P(F/S)=  3/ 4

27SE WRITB 41037 2208            57 68   50/ 14/ 21 1021.4F
FRYING PAN 41013 2300            63 74   60/ 17/ 23 1020.5
SUNST NRSH 41024 2208            50 60   70/ 14/ 17 1020.6F
CAPRS NRSH 41029 2208            59 61   60/ 19/ 27 1018.9F
EDISTO     41004 2250            70 75  140/ 14/ 16 1018.4F
WVE H/P(F/S)=  4/ 5 SWL H/P/D(F/S/D)=  2/100/ 8



..........OFFSHORE BUOYS BEYOND 100 NM OFFSHORE...........
.....IN A TRIANGLE---HAT TO BERMUDA TO BAHAMAS TO HAT.....


STATION/POSITION TIME  SKY/WX   TEMP    WIND        PRES    VSBY
                                AIR SEA DIR/SP/G
                 (UTC)          (F)     (DEG/KT/KT) (MB)    (MI)
150E HAT   41001 NOT AVBL
W BERMUDA  41048 2250            66 73  330/ 14/ 17 1020.5R
WVE H/P(F/S)=  9/10 SWL H/P/D(F/S/D)=  8/350/10

ATLANTIC S 41049 2250            72 76  350/ 16/ 19 1016.8R
WVE H/P(F/S)= 10/12 SWL H/P/D(F/S/D)= 10/340/12

E BAHAMAS  41046 2300            75 78   30/ 14/ 16 1018.0
NE BAHAMAS 41047 2300            71 78   40/  8/ 12 1019.8
120E CANVRL41010 NOT AVBL

END



USA.gov is the U.S. government's official web portal to all federal, state and local government web resources and services.